Showing default

KINEIS-4E, 63300

Orbit data source: Space-Track

KINEIS-4E, 63300 is a French payload satellite in SSO that was launched on Tue, 18 Mar 2025 UTC via an ELECTRON launch vehicle from the Rocket Lab Launch Complex (RLLC). Payload-class satellites include a variety of spacecraft equipped with specific instruments for various scientific and technological missions. These include communications satellites like Starlink; space stations such as the ISS; scientific satellites like the Hubble; Earth observation satellites from companies like Planet Labs, Umbra, and HawkEye 360; GPS; miniature CubeSats for education and research; and military/defense satellites.

Loading next visibility...
Identifier
63300, 2025-056A
Orbit
SSO
Country
Flag of FRFR
Related business
Manufacturer
KINEIS
Mission
Operational Commercial Communications
Bus & Motor
CUBESAT 16U, Unknown motor
Mass
28 kg wet, 28 kg dry
Launch date (UTC)
2025-03-18 (7 months ago)
Launch vehicle
ELECTRON
Launch site
Rocket Lab Launch Complex (RLLC)
Object type
Payload
Rocket body
Debris
Shape & HBR
Box + 2 Pan + 1 Ant, 1.0 m
Radar Cross Section
0.229 m², Medium (>0.1 m² and < 1m²)

Expand to show TLE details & history
Last TLE update: 7 hours ago

TLE from 7 hours ago
0 KINEIS-4E
1 63300U 25056A   25300.95713988  .00003375  00000-0  54260-3 0  9998
2 63300  97.9980  64.3963 0000554  51.6284 308.4973 14.72230133 32956
Epoch: 2025-10-27T22:58Z
TLE epoch observation values (Epoch: 2025-10-27T22:58:16.885Z)
Latitude
-0.00004°
Longitude
43.27442°
Altitude
656.723 km
Speed
7.529 km/s
True Right ascension
04h 17m 35s
True Declination
0° 00' 00"
Sunlit
Object was in full shadow at epoch
Visualization orbit readout
Latitude
Unknown
Longitude
Unknown
Altitude
Unknown
Speed
Unknown
Apparent Right ascension
Unknown
Apparent Declination
Unknown
Sunlit
N/A
Visualization observer readout
Local Sidereal Time
01:50:59
Azimuth
Unknown
Elevation
Unknown
Doppler factor
Unknown
Orbital elements
Apogee altitude
651.403 km
Perigee altitude
650.624 km
Semi-major axis
7,029.15 km
Eccentricity
0.00006
Inclination
97.998°
RAAN
64.3963°
Arg. of periapsis
51.6284°
True anomaly
308.49233°
Mean anomaly
308.4973°
Eccentric anomaly
308.49482°
Mean motion
3.68289 °/min
Orbital period
97.75 mins
BSTAR
0.0005426
Loading maneuver chart data...
Computing Atmospheric mass density...
Loading historical data...
Loading historical data...
Loading historical data...
Loading historical data...
Loading historical data...
Loading historical data...
Loading historical data...

Documentation

Showing up to 5 results
|